Regional Weather Roundup
Issued by NWS

Home | Current Version | Previous Version | Graphics & Text | Print | Product List | Glossary On
Versions: 1 2 3 4 5 6 7 8 9 10 11 12 13 14 15 16 17 18 19 20 21 22 23 24 25 26 27 28 29 30 31 32 33 34 35 36 37 38 39 40 41 42 43 44 45 46 47 48 49 50
391
ASUS43 KMKX 220310
RWRWI

WISCONSIN REGIONAL WEATHER ROUNDUP
NATIONAL WEATHER SERVICE MILWAUKEE/SULLIVAN WI
900 PM CST WED FEB 21 2018

NOTE: "FAIR" INDICATES FEW OR NO CLOUDS BELOW 12,000 FEET WITH NO
SIGNIFICANT WEATHER AND/OR OBSTRUCTIONS TO VISIBILITY.

WIZ001-002-006>008-014>016-023>028-220400-
NORTHWEST WISCONSIN

CITY           SKY/WX    TMP DP  RH WIND       PRES   REMARKS
SUPERIOR ARPT  FAIR      12   0  60 SW3       30.63S
ASHLAND        FAIR      12   3  67 S6        30.63R WCI   3
HAYWARD        FAIR      10   3  73 SW5       30.61S WCI   2
SIREN          FAIR       7   0  71 CALM      30.63S
CUMBERLAND     FAIR       7   1  78 CALM      30.61F
RICE LAKE      FAIR       5   2  87 CALM      30.64F
CHETEK         FAIR       6   2  84 CALM      30.63F
LADYSMITH      FAIR       6   1  80 CALM      30.64S
EAU CLAIRE     FAIR       7   3  84 CALM      30.64S
MENOMONIE      FAIR       8   2  75 E3        30.65S
NEW RICHMOND   FAIR       5  -1  74 CALM      30.64R
OSCEOLA        FAIR      10   3  74 S5        30.67S WCI   1
$$

WIZ003>005-009-010-017-018-220400-
NORTH CENTRAL WISCONSIN

CITY           SKY/WX    TMP DP  RH WIND       PRES   REMARKS
MANITOWISH WTR FAIR       1  -1  90 CALM      30.57S
ARBOR VITAE    FAIR       6   3  85 CALM      30.59R
WOODRUFF       FAIR       6   3  85 CALM      30.59R
RHINELANDER    FAIR       4   0  83 W3        30.59S
EAGLE RIVER    FAIR       4   0  85 CALM      30.58R
LAND O LAKES   FAIR      -1  -5  84 CALM      30.59S
PHILLIPS       FAIR       3  -1  84 CALM      30.60R
TOMAHAWK       FAIR       1  -2  87 CALM      30.62R
MEDFORD        FAIR       6   1  79 CALM      30.60F
MERRILL        FAIR       4   2  88 CALM      30.63S
$$

WIZ029-030-035-036-043>047-220400-
CENTRAL WISCONSIN

CITY           SKY/WX    TMP DP  RH WIND       PRES   REMARKS
WAUSAU         FAIR      10   5  80 CALM      30.62F
MOSINEE        PTCLDY    10   7  85 CALM      30.64F
MARSHFIELD     FAIR      10   5  80 CALM      30.61F
STEVENS POINT  FAIR       9   7  91 CALM      30.65S
WAUPACA        FAIR      19  12  73 NW3       30.67S
WAUTOMA        FAIR      18  12  77 N3        30.66F
WISC RAPIDS    FAIR      14   9  80 CALM      30.66S
CAMP DOUGLAS   MOCLDY    14  12  92 CALM      30.64F
$$

WIZ011>013-019>022-031-037>040-048>050-220400-
NORTHEAST WISCONSIN

CITY           SKY/WX    TMP DP  RH WIND       PRES   REMARKS
ANTIGO         FAIR       6   3  87 CALM      30.61F
SHAWANO        FAIR      20  11  66 CALM      30.68R
OCONTO         FAIR      20  11  69 W5        30.69R WCI  13
STURGEON BAY   FAIR      20  12  71 W5        30.67S WCI  13
GREEN BAY      FAIR      22  12  65 NW6       30.67S WCI  14
MANITOWOC      FAIR      23  13  65 NW8       30.68R WCI  14
APPLETON       PTCLDY    19   7  58 NW5       30.64F WCI  13
CLINTONVILLE   FAIR      18   8  64 W5        30.67F WCI  11
OSHKOSH        FAIR      20  10  65 NW7       30.65S WCI  11
$$

WIZ032>034-041-042-053>061-220400-
SOUTHWEST WISCONSIN

CITY           SKY/WX    TMP DP  RH WIND       PRES   REMARKS
LA CROSSE      FAIR      20  15  81 CALM      30.66F
SPARTA         FAIR      16  14  95 CALM      30.66F
VIROQUA        FAIR      19  17  90 CALM      30.61S
BOSCOBEL       FAIR      23  14  68 CALM      30.65F
PRAIRIE DU CHI FAIR      23  12  62 CALM      30.65R
PLATTEVILLE    FAIR      24  16  70 NE6       30.61F WCI  17
$$

WIZ056-057-062-063-064-067-068-220400-
SOUTH CENTRAL WISCONSIN

CITY           SKY/WX    TMP DP  RH WIND       PRES   REMARKS
REEDSBURG      FAIR      21  13  71 NE3       30.64S
BARABOO/DELLS  FAIR      21  13  71 CALM      30.64S
LONE ROCK      FAIR      25  13  60 NE3       30.66R
MINERAL POINT  FAIR      27  16  63 NE6       30.60F WCI  20
MADISON        MOCLDY    22  12  65 N5        30.64F WCI  16
MIDDLETON      FAIR      25  16  68 N5        30.64S WCI  19
WATERTOWN      FAIR      23  14  68 CALM      30.63F
MONROE         FAIR      25  16  68 NE9       30.61S WCI  15
JANESVILLE     CLOUDY    27  18  69 NE3       30.63F
$$

WIZ051-052-058>065-066-070>072-220400-
SOUTHEAST WISCONSIN

CITY           SKY/WX    TMP DP  RH WIND       PRES   REMARKS
MILWAUKEE      CLOUDY    27  16  63 N5        30.65S WCI  22
WAUKESHA       CLEAR     21  12  68 NE5       30.65F WCI  15
MILWAUKEE/TIMM CLEAR     25  12  58 N3        30.67S
RACINE         FAIR      25  17  72 N3        30.67S
BURLINGTON     FAIR      24  15  67 N3        30.64F
KENOSHA        FAIR      26  19  74 NE6       30.64F WCI  19
FOND DU LAC    FAIR      23  11  60 N6        30.66S WCI  16
SHEBOYGAN      FAIR      23  14  68 N5        30.66S WCI  17
WEST BEND      FAIR      25  16  68 CALM      30.64F
JUNEAU         FAIR      22  12  66 N5        30.65F WCI  16
$$

LSZ147-162-220400-
LAKE SUPERIOR

STATION/POSITION TIME  TEMP    WIND        PRES    WAVE
                       AIR SEA DIR/SP/G            HT/PER
                 (UTC) (F)     (DEG/KT/KT) (MB)    (FT/S)
DEVILS ISLAND    0100   21     190/  8/ 11 1037.2R
SAXON HARBOR     0140   16     190/  4/  7 1036.2S
$$

LMZ867-665-643>646-220400-
LAKE MICHIGAN

STATION/POSITION TIME  TEMP    WIND        PRES    WAVE
                       AIR SEA DIR/SP/G            HT/PER
                 (UTC) (F)     (DEG/KT/KT) (MB)    (FT/S)
NORTHPORT PIER   0140   21                 1037.9R
KEWAUNEE LAKESHO 0248   22     300/  5/  7 1037.4F
SHEBOYGAN LAKESH 0100   25     320/  5/  7 1039.5R
PORT WASHINGTON  0140   26      20/  2/  3 1039.3R
MILWAUKEE LAKESH 0250   27     340/  5/  6   N/A
KENOSHA   LAKESH 0100   28      20/  6/  7 1037.9
$$

TC  - TEMPERATURE IN CELSIUS
VSB - VISIBILITY IN STATUTE MILES
WCI - WIND CHILL INDEX
HX  - HEAT INDEX





USA.gov is the U.S. government's official web portal to all federal, state and local government web resources and services.